Location: Arbon
(43.0005°N, 0.7472°E)
Time: 22:50:38
(UTC+00:00)

Explorer 7 - Pass Details

Date: 02 December 2020
Orbit: 484 x 678 km, 50.3° (Epoch: 26 January)

Event Time Altitude Azimuth Distance (km) Brightness Sun altitude
Rises 23:49:45 0° 224° (SW) 2,991 - -69.1°
Reaches altitude 10° 23:52:10 10° 220° (SW) 2,063 - -69.1°
Maximum altitude 23:56:48 54° 143° (SE) 774 - -69.0°
Drops below altitude 10° 00:01:15 10° 66° (ENE) 1,971 - -68.9°
Sets 00:03:31 0° 62° (ENE) 2,845 - -68.8°
